Home > Weather > Grieskirchen > Past weeks

Flag for Austria Past Weather in Grieskirchen, Upper Austria, Austria — Yesterday and Last 2 Weeks

Now
73 °F

Passing clouds.


Feels Like: 75 °F
Forecast: 61 / 80 °F
Wind: 3 mph from Northeast

Location: Linz / Hoersching-Flughafen

Current Time: Jul 24, 2016 at 10:36:15 PM

Latest Report: Jul 24, 2016 at 9:50 PM


Visibility: N/A

Pressure: 30.07 "Hg

Humidity: 74%

Dew Point: 64 °F

Location of GrieskirchenLocation

Past Weather in Grieskirchen — Graph

°F

Grieskirchen Temperature Yesterday

Maximum temperature yesterday: 86 °F (at 4:50 PM)
Minimum temperature yesterday: 64 °F (at 4:20 AM)
Average temperature yesterday: 74 °F

High & Low Weather Summary for the Past Weeks

 TemperatureHumidityPressure
High91 °F (Jul 11, 3:20 PM)100% (Jul 14, 4:50 AM)30.30 "Hg (Jul 14, 4:50 AM)
Low52 °F (Jul 14, 4:50 AM)33% (Jul 20, 5:20 PM)29.83 "Hg (Jul 11, 7:20 PM)
Average69 °F74%30.06 "Hg
* Reported Jul 9 9:20 PM — Jul 24 9:20 PM, Grieskirchen, Weather by CustomWeather, © 2016

Note: Actual official high and low records may vary slightly from our data, if they occured in-between our weather recording intervals... More about our weather records

Advertising

Grieskirchen Weather History for the Previous 24 Hours

Scroll right to see more
 ConditionsComfort  
Time TempWeatherWind HumidityBarometerVisibility
9:20 PM
Sun, Jul 24
73 °FPassing clouds.1 mph69%30.07 "HgN/A
8:50 PM75 °FMild.2 mph61%30.04 "HgN/A
8:20 PM79 °FWarm.6 mph51%30.04 "HgN/A
7:50 PM81 °FPassing clouds.5 mph51%30.04 "HgN/A
7:20 PM82 °FPassing clouds.3 mph51%30.04 "HgN/A
6:50 PM82 °FPassing clouds.3 mph51%30.04 "HgN/A
6:20 PM82 °FPassing clouds.6 mph51%30.04 "HgN/A
5:50 PM82 °FPassing clouds.3 mph55%30.04 "HgN/A
5:20 PM82 °FPassing clouds.2 mph51%30.04 "HgN/A
4:50 PM81 °FPassing clouds.6 mph54%30.04 "HgN/A
4:20 PM81 °FPassing clouds.5 mph51%30.07 "HgN/A
3:50 PM81 °FScattered clouds.6 mph54%30.07 "HgN/A
3:20 PM79 °FScattered clouds.3 mph61%30.07 "HgN/A
2:50 PM79 °FScattered clouds.3 mph58%30.09 "HgN/A
2:20 PM79 °FScattered clouds.5 mph61%30.09 "HgN/A
1:50 PM79 °FScattered clouds.6 mph61%30.09 "HgN/A
1:20 PM75 °FScattered clouds.2 mph69%30.09 "HgN/A
12:50 PM75 °FBroken clouds.3 mph69%30.09 "HgN/A
12:20 PM73 °FBroken clouds.7 mph74%30.09 "HgN/A
11:50 AM73 °FBroken clouds.8 mph78%30.09 "HgN/A
11:20 AM73 °FBroken clouds.8 mph74%30.12 "HgN/A
10:50 AM72 °FPartly sunny.8 mph78%30.12 "HgN/A
10:20 AM72 °FPartly sunny.9 mph78%30.12 "HgN/A
9:50 AM70 °FPartly sunny.6 mph83%30.09 "HgN/A
9:20 AM70 °FPartly sunny.7 mph83%30.09 "HgN/A
8:50 AM68 °FPartly sunny.7 mph94%30.09 "HgN/A
8:20 AM68 °FPartly sunny.8 mph88%30.09 "HgN/A
7:50 AM68 °FPartly sunny.8 mph88%30.09 "HgN/A
7:20 AM66 °FPartly sunny.6 mph94%30.09 "HgN/A
6:50 AM66 °FPartly sunny.5 mph94%30.09 "HgN/A
6:20 AM66 °FPassing clouds.6 mph94%30.09 "HgN/A
5:50 AM66 °FPassing clouds.6 mph94%30.09 "HgN/A
5:20 AM66 °FPassing clouds.6 mph94%30.07 "HgN/A
4:50 AM66 °FPassing clouds.6 mph94%30.07 "HgN/A
4:20 AM66 °FPassing clouds.7 mph94%30.09 "HgN/A
3:50 AM66 °FPassing clouds.8 mph94%30.09 "HgN/A
3:20 AM66 °FPartly cloudy.7 mph94%30.09 "HgN/A
2:50 AM66 °FPassing clouds.8 mph94%30.07 "HgN/A
2:20 AM66 °FPassing clouds.9 mph94%30.07 "HgN/A
1:50 AM66 °FPassing clouds.10 mph94%30.07 "HgN/A
1:20 AM66 °FPassing clouds.9 mph94%30.07 "HgN/A
12:50 AM68 °FSprinkles. Passing clouds.9 mph88%30.07 "HgN/A
12:20 AM68 °FSprinkles. Overcast.10 mph88%30.07 "HgN/A
11:50 PM
Sat, Jul 23
68 °FMild.8 mph94%30.07 "HgN/A
11:20 PM68 °FThunderstorms. Overcast.10 mph94%30.07 "HgN/A
10:50 PM66 °FStrong thunderstorms. Overcast.12 mph94%30.04 "Hg3 mi
10:20 PM68 °FStrong thunderstorms. Overcast.17 mph94%30.04 "Hg3 mi
Weather by CustomWeather, © 2016

See weather overviewHow to use our weather pages